TimeMST,TemperatureF,Dew PointF,Humidity,Sea Level PressureIn,VisibilityMPH,Wind Direction,Wind SpeedMPH,Gust SpeedMPH,PrecipitationIn,Events,Conditions,WindDirDegrees,DateUTC
12:54 AM,24.1,12.0,60,30.01,10.0,West,11.5,-,N/A,,Clear,280,2013-02-14 07:54:00
1:54 AM,23.0,10.9,60,30.01,10.0,West,10.4,-,N/A,,Clear,270,2013-02-14 08:54:00
2:54 AM,21.9,10.9,63,30.01,10.0,West,11.5,-,N/A,,Clear,260,2013-02-14 09:54:00
3:54 AM,19.9,10.0,65,30.01,10.0,West,10.4,-,N/A,,Clear,270,2013-02-14 10:54:00
4:54 AM,21.0,10.0,63,30.04,10.0,West,10.4,-,N/A,,Clear,280,2013-02-14 11:54:00
5:54 AM,18.0,9.0,68,30.07,10.0,West,8.1,-,N/A,,Clear,260,2013-02-14 12:54:00
6:54 AM,17.1,9.0,71,30.13,10.0,WSW,10.4,-,N/A,,Clear,250,2013-02-14 13:54:00
7:54 AM,24.1,10.9,57,30.13,10.0,West,6.9,-,N/A,,Clear,260,2013-02-14 14:54:00
8:54 AM,30.9,12.9,47,30.14,10.0,WSW,8.1,-,N/A,,Clear,240,2013-02-14 15:54:00
9:54 AM,37.0,14.0,39,30.11,10.0,SE,5.8,-,N/A,,Mostly Cloudy,130,2013-02-14 16:54:00
10:54 AM,39.9,16.0,38,30.08,10.0,SE,5.8,-,N/A,,Mostly Cloudy,130,2013-02-14 17:54:00
11:54 AM,41.0,15.1,35,30.06,10.0,Calm,Calm,-,N/A,,Mostly Cloudy,0,2013-02-14 18:54:00
12:54 PM,44.1,12.9,28,30.05,10.0,Variable,4.6,-,N/A,,Overcast,0,2013-02-14 19:54:00
1:54 PM,46.0,12.0,25,30.04,10.0,NE,8.1,-,N/A,,Overcast,50,2013-02-14 20:54:00
2:54 PM,46.0,12.0,25,30.06,10.0,NNE,5.8,21.9,N/A,,Scattered Clouds,30,2013-02-14 21:54:00
3:54 PM,46.0,12.9,26,30.09,10.0,NNE,15.0,-,N/A,,Overcast,30,2013-02-14 22:54:00
4:54 PM,30.0,23.0,75,30.24,10.0,NNE,27.6,39.1,N/A,,Overcast,30,2013-02-14 23:54:00
5:06 PM,30.2,23.0,75,30.18,10.0,NNE,23.0,38.0,N/A,,Overcast,30,2013-02-15 00:06:00
5:54 PM,28.0,21.0,75,30.33,10.0,NE,17.3,26.5,N/A,,Overcast,40,2013-02-15 00:54:00
6:30 PM,26.6,19.4,74,30.26,10.0,NE,12.7,-,0.00,,Overcast,40,2013-02-15 01:30:00
6:54 PM,27.0,19.0,72,30.39,9.0,NE,12.7,-,0.00,Snow,Light Snow,50,2013-02-15 01:54:00
7:54 PM,25.0,18.0,75,30.36,10.0,NE,10.4,-,0.00,,Overcast,50,2013-02-15 02:54:00
8:38 PM,24.8,17.6,74,30.28,2.0,NE,5.8,-,0.00,Snow,Light Snow,40,2013-02-15 03:38:00
8:54 PM,24.1,19.0,81,30.36,2.0,ENE,5.8,-,0.00,Snow,Light Snow,60,2013-02-15 03:54:00
9:03 PM,24.8,19.4,80,30.29,1.8,East,3.5,-,0.00,Snow,Light Snow,90,2013-02-15 04:03:00
9:10 PM,24.8,19.4,80,30.29,2.0,East,3.5,-,0.00,Snow,Light Snow,80,2013-02-15 04:10:00
9:34 PM,23.0,19.4,86,30.30,4.0,East,4.6,-,0.00,Snow,Light Snow,80,2013-02-15 04:34:00
9:54 PM,23.0,19.0,85,30.34,6.0,East,6.9,-,0.00,Snow,Light Snow,80,2013-02-15 04:54:00
10:54 PM,21.9,19.0,89,30.33,10.0,SE,3.5,-,0.00,,Overcast,130,2013-02-15 05:54:00
11:54 PM,21.9,19.0,89,30.32,10.0,South,3.5,-,N/A,,Overcast,180,2013-02-15 06:54:00